BRO-14

导读

BRO-14是法国于2024年8月16日08:00发射的一颗卫星。作为法国航天领域新的在轨节点,它承载着法国航天技术试验或相关空间应用任务,进一步延续了法国在欧洲航天领域的活跃探索,依托成熟发射流程完成入轨部署,后续将为法国相关空间技术验证、对地观测或空间科学研究提供在轨数据支撑,丰富全球低轨卫星星座的应用实践。

基本信息
目录编号:
60551
目录名称:
BRO-14
国际标识:
2024-149CM
轨道中心:
EARTH
卫星名称:
BRO-14
卫星全名:
BRO-14
卫星状态:
在轨 (已飞行757 天)
发射日期:
2024-08-16 UTC
国别 :
法国 (FR)
星等 :
--
该卫星已列入 空间交会检测服务 Space Conjunction Data Service (SCDS) ,当前飞行风险评估等级: 高风险
轨道信息
数据来源 国际轨道数据
星历时间: 2026-09-12T11:10:51+0800
13小时前
查看轨道信息
半长轴: 6956.38km
偏心率: 0.0007141
轨道倾角: 97.681°
近地点辐角 156.514°
升交点赤经 329.328°
平近点角 203.641°
近地点: 573.275km
远地点: 583.211km
周期: 96.235分钟
每日圈数: 14.963315
详细信息
使用方式:
暂无
2D轨道图
3D轨道图
轨道高度分析图
轨道倾角分析图
轨道综合分析图
查看轨道综合分析图
与全量物体交会距离演化趋势
与全量物体交会风险概率演化趋势